Location: Asheville, NC
(35.6000°N, 82.5500°W)
Time: 10:38:52
(UTC-04:00)

Vanguard 2 Rocket - Pass Details

Date: 12 March 2018
Orbit: 553 x 3328 km, 32.9° (Epoch: 18 June)

Event Time Altitude Azimuth Distance (km) Brightness Sun altitude
Rises 17:27:45 0° 221° (SW) 2,769 10.5 24.3°
Reaches altitude 10° 17:30:23 10° 204° (SSW) 1,814 9.3 23.8°
Maximum altitude 17:33:23 21° 153° (SSE) 1,288 7.8 23.2°
Drops below altitude 10° 17:36:39 10° 103° (ESE) 1,996 8.3 22.6°
Sets 17:39:44 0° 88° (E) 3,148 9.1 22.0°
